TimeCDT,TemperatureF,Dew PointF,Humidity,Sea Level PressureIn,VisibilityMPH,Wind Direction,Wind SpeedMPH,Gust SpeedMPH,PrecipitationIn,Events,Conditions,WindDirDegrees,DateUTC
12:51 AM,66.9,64.9,93,29.69,8.0,SSE,9.2,-,N/A,,Partly Cloudy,150,2013-03-18 05:51:00
1:11 AM,66.2,64.4,94,29.73,6.0,SE,8.1,-,N/A,,Mostly Cloudy,140,2013-03-18 06:11:00
1:51 AM,66.0,64.9,96,29.69,6.0,SSE,6.9,-,N/A,,Overcast,150,2013-03-18 06:51:00
2:51 AM,66.9,64.9,93,29.70,6.0,SSE,9.2,-,N/A,,Overcast,160,2013-03-18 07:51:00
3:51 AM,66.0,64.0,93,29.71,6.0,South,3.5,-,N/A,,Overcast,170,2013-03-18 08:51:00
4:51 AM,64.9,64.0,97,29.72,5.0,Calm,Calm,-,N/A,,Overcast,0,2013-03-18 09:51:00
5:51 AM,63.0,62.1,97,29.73,4.0,South,4.6,-,N/A,,Mostly Cloudy,170,2013-03-18 10:51:00
6:44 AM,66.2,64.4,94,29.79,5.0,South,5.8,-,N/A,,Mostly Cloudy,190,2013-03-18 11:44:00
6:51 AM,66.0,64.0,93,29.74,5.0,Variable,3.5,-,N/A,,Mostly Cloudy,0,2013-03-18 11:51:00
7:51 AM,64.9,63.0,93,29.76,4.0,NW,3.5,-,N/A,,Mostly Cloudy,310,2013-03-18 12:51:00
8:01 AM,64.4,62.6,94,29.81,6.0,Calm,Calm,-,N/A,,Mostly Cloudy,0,2013-03-18 13:01:00
8:51 AM,66.9,64.9,93,29.77,7.0,WSW,3.5,-,N/A,Fog,Patches of Fog,250,2013-03-18 13:51:00
9:51 AM,69.1,64.9,87,29.79,7.0,South,4.6,-,N/A,Fog,Patches of Fog,170,2013-03-18 14:51:00
10:51 AM,73.9,66.0,76,29.78,7.0,Calm,Calm,-,N/A,,Clear,0,2013-03-18 15:51:00
11:51 AM,80.1,64.0,58,29.77,10.0,SSW,4.6,-,N/A,,Clear,200,2013-03-18 16:51:00
12:46 PM,87.8,59.0,38,29.81,10.0,North,4.6,17.3,N/A,,Clear,360,2013-03-18 17:46:00
12:51 PM,90.0,60.1,37,29.75,10.0,Variable,6.9,-,N/A,,Clear,0,2013-03-18 17:51:00
1:51 PM,93.0,30.0,11,29.73,10.0,NNW,9.2,-,N/A,,Clear,330,2013-03-18 18:51:00
2:51 PM,93.9,30.0,10,29.71,10.0,NW,9.2,17.3,N/A,,Partly Cloudy,320,2013-03-18 19:51:00
3:25 PM,93.2,28.4,10,29.75,10.0,NNW,11.5,20.7,N/A,,Partly Cloudy,330,2013-03-18 20:25:00
3:51 PM,93.0,28.0,10,29.69,10.0,WSW,5.8,-,N/A,,Partly Cloudy,240,2013-03-18 20:51:00
4:51 PM,93.9,25.0,8,29.70,10.0,NW,9.2,17.3,N/A,,Scattered Clouds,310,2013-03-18 21:51:00
5:51 PM,90.0,32.0,13,29.72,10.0,North,19.6,25.3,N/A,,Mostly Cloudy,10,2013-03-18 22:51:00
6:51 PM,84.9,37.9,19,29.76,10.0,NNE,12.7,-,N/A,,Mostly Cloudy,20,2013-03-18 23:51:00
7:51 PM,81.0,35.1,19,29.80,10.0,North,15.0,21.9,N/A,,Mostly Cloudy,10,2013-03-19 00:51:00
8:51 PM,78.1,42.1,28,29.82,10.0,NNE,10.4,-,N/A,,Mostly Cloudy,30,2013-03-19 01:51:00
9:51 PM,73.9,44.1,34,29.85,10.0,NNE,11.5,19.6,N/A,,Mostly Cloudy,30,2013-03-19 02:51:00
10:51 PM,71.1,46.0,41,29.87,10.0,NE,9.2,-,N/A,,Partly Cloudy,40,2013-03-19 03:51:00
11:51 PM,68.0,46.9,47,29.89,10.0,NE,6.9,-,N/A,,Clear,40,2013-03-19 04:51:00